Wind_Speed
8 8 8 8 8 9 9 9 9 9 9 9 9 9 8 8 8 9 8 8 8 8 8 7 8 8 8 8 7 7 7 7 7 7 8 7 7 6 6 6 6 6 7 8 8 9 8 9 10 10 10 10 10 11 13 15 17 18 19 20 20 20 17 11 10 12 11 6 5 5 3 4 3 3 4 4 3 3 6 6 8 11 13 17 14 13 17 16
9 9 9 9 9 9 9 9 9 9 9 9 9 9 9 9 9 9 9 8 8 8 7 6 6 6 6 6 6 6 6 6 6 6 7 7 7 6 5 5 5 6 7 8 8 8 8 9 10 10 11 11 11 11 13 14 16 17 17 17 17 16 14 12 11 10 8 4 3 3 2 3 4 3 3 0 2 3 3 5 8 10 13 16 16 16 17 16
10 10 10 10 10 10 10 9 9 9 9 9 9 9 9 9 9 9 9 8 8 7 6 5 4 4 4 4 4 4 4 4 4 4 5 6 7 6 5 4 5 6 7 8 8 8 8 9 9 9 10 11 11 11 12 14 14 14 13 12 11 11 11 10 9 7 4 3 2 2 2 1 3 3 2 1 1 2 3 7 9 8 11 16 17 17 16 14
11 11 11 11 10 10 10 10 10 10 11 11 11 11 11 10 10 9 8 7 6 6 5 4 3 3 2 2 2 2 2 2 2 3 3 4 5 5 5 5 6 8 9 9 9 8 8 8 8 8 9 11 11 11 12 13 13 12 9 5 6 7 8 8 7 6 5 3 3 3 3 1 2 1 2 2 2 1 4 10 11 11 13 17 18 16 15 14
12 12 11 11 11 11 11 11 12 12 12 12 12 12 12 11 10 9 8 6 5 5 4 3 2 2 1 1 1 2 2 2 2 2 3 4 4 4 5 6 8 10 11 11 10 9 9 8 8 8 8 10 10 9 10 11 12 12 9 7 7 8 8 8 7 7 5 3 3 3 2 1 3 4 2 2 3 2 2 6 9 11 13 15 16 15 14 14
13 13 12 12 12 12 12 13 13 13 14 14 13 13 12 11 10 9 7 6 4 4 3 2 2 1 1 0 1 2 2 1 1 3 4 4 4 3 4 6 9 11 11 11 11 9 9 9 9 9 8 9 9 9 9 9 11 13 10 9 7 9 9 7 7 6 4 5 5 3 2 1 4 5 5 6 6 5 4 2 3 8 11 14 16 15 14 13
13 14 14 13 14 14 14 14 14 14 14 14 14 13 12 10 9 8 6 5 4 3 3 2 2 2 2 2 1 1 1 1 2 4 4 3 3 2 3 5 8 10 11 11 11 10 10 10 10 10 10 12 12 11 10 7 11 14 11 9 6 7 8 8 8 7 6 6 4 2 1 1 3 4 5 6 5 3 4 2 4 7 11 14 15 15 15 13
14 14 15 15 15 15 15 16 16 15 14 13 13 12 11 9 9 8 6 4 3 2 1 1 2 4 5 4 3 3 2 1 2 2 1 1 3 4 4 5 6 8 9 9 10 11 11 10 11 12 12 14 11 10 9 5 10 13 9 7 5 5 7 10 11 9 7 5 3 2 3 3 3 5 6 7 6 6 6 6 8 9 10 12 14 15 17 17
15 15 16 16 16 16 16 15 15 14 13 11 11 11 10 9 9 7 5 4 2 1 0 2 4 6 7 5 4 4 3 2 1 1 2 3 5 6 6 6 6 7 8 8 10 10 9 8 10 12 13 13 9 8 7 5 9 11 7 6 4 5 9 11 11 8 5 4 3 5 6 6 9 9 9 10 8 9 9 9 11 11 10 12 14 15 17 18
16 16 16 16 15 15 14 14 13 12 11 10 9 10 10 10 8 6 5 3 1 1 2 4 5 7 8 8 7 6 4 4 4 4 4 4 4 5 9 9 8 8 8 8 9 9 8 7 9 11 12 11 8 6 7 6 9 10 9 9 7 9 11 11 10 7 6 7 6 6 9 10 11 11 11 10 8 9 9 9 11 12 12 14 15 16 17 17
17 17 17 16 15 14 13 13 12 11 10 9 9 9 9 9 7 5 3 2 1 3 4 4 6 7 9 10 11 9 5 4 4 5 5 4 4 3 8 10 9 8 8 8 8 8 8 7 8 10 10 10 8 7 8 9 9 10 9 10 9 10 11 10 10 7 7 9 7 6 10 12 11 11 12 11 9 10 8 8 12 13 14 15 15 16 15 15
17 17 17 15 14 14 13 12 12 11 9 9 8 8 8 7 5 3 2 2 4 5 5 5 6 8 10 11 11 10 7 6 4 5 6 5 4 3 5 10 11 7 6 7 7 8 9 8 7 9 9 9 9 8 9 9 9 9 8 8 10 11 10 9 9 8 8 9 8 8 14 17 15 16 17 15 15 13 7 8 13 14 14 15 15 15 14 15
17 17 16 15 14 13 13 12 12 11 10 9 8 7 7 5 3 3 4 6 8 8 7 6 7 10 12 11 11 10 9 8 6 6 6 7 6 4 4 7 9 7 4 4 6 7 8 8 7 8 9 9 10 8 8 9 8 8 7 8 11 13 11 10 11 11 10 10 8 9 17 22 21 21 20 18 18 14 9 10 13 13 13 13 13 13 12 12
17 17 17 16 14 13 13 13 12 11 10 9 7 7 6 4 4 6 8 10 11 10 9 8 9 12 14 12 12 13 12 9 7 8 8 8 7 7 6 5 5 5 4 3 4 6 7 8 8 9 9 10 9 7 7 8 8 9 8 8 13 14 11 11 13 12 11 10 6 8 18 23 21 22 21 19 18 15 11 12 13 11 12 12 11 11 9 8
18 18 18 16 15 13 12 12 12 11 9 8 7 7 6 5 8 10 10 11 12 11 10 10 11 12 14 12 12 14 14 11 8 8 9 8 9 10 10 8 5 3 3 2 3 3 5 9 10 9 9 9 8 7 7 8 8 9 8 8 12 14 13 12 11 8 8 8 4 8 21 23 18 20 19 17 16 14 11 13 13 12 12 11 11 10 8 6
19 19 19 17 15 13 11 11 12 10 9 7 6 7 7 8 11 11 10 10 11 10 10 11 12 11 12 11 11 12 13 13 11 10 10 10 10 10 10 8 5 4 5 5 7 7 8 10 11 8 7 9 8 7 9 9 9 8 7 8 12 15 16 14 12 9 6 6 4 10 22 23 18 19 18 15 14 12 10 10 12 12 11 11 10 9 7 6
19 20 19 17 14 12 11 11 11 11 9 6 5 7 8 10 11 10 10 10 9 8 8 9 10 10 10 10 10 10 11 12 12 12 11 11 10 9 9 8 5 6 8 9 10 9 10 11 9 7 7 9 8 8 10 10 9 7 7 9 12 14 15 14 11 9 5 4 7 14 22 22 17 16 15 13 13 11 11 10 11 11 10 9 8 7 6 6
19 20 19 16 14 12 12 12 11 10 8 5 4 7 8 10 10 10 9 8 8 8 7 7 7 8 10 11 10 9 10 11 11 11 11 11 10 9 10 8 5 8 8 9 9 10 11 12 12 11 12 11 9 9 10 12 10 8 8 9 12 13 13 13 10 8 4 4 11 16 20 21 18 16 13 12 11 10 11 13 12 11 10 9 8 7 7 7
19 20 19 16 14 13 13 13 11 9 7 4 4 6 7 8 9 8 8 7 8 8 8 8 9 10 11 11 9 8 8 9 9 10 10 10 9 9 10 7 5 7 7 8 9 11 13 14 14 14 13 12 11 11 11 12 11 10 9 10 13 14 14 12 10 7 2 6 15 14 17 24 21 19 16 14 12 10 11 12 11 10 9 8 8 8 8 8
19 20 19 17 14 13 14 13 11 8 5 3 3 6 7 8 7 7 8 8 8 9 8 8 9 9 9 9 9 7 6 8 8 7 7 8 8 8 7 7 4 6 7 8 11 13 14 14 14 13 12 10 10 11 10 10 10 10 9 11 12 13 16 14 13 12 4 7 20 17 19 26 23 21 19 16 14 11 10 9 8 8 8 8 8 8 8 9
20 20 19 18 15 14 14 12 11 8 5 2 3 6 8 7 6 8 9 8 8 9 8 8 8 8 6 7 7 7 6 6 5 4 4 5 5 6 7 7 4 6 8 9 11 12 12 13 13 11 10 9 8 8 9 9 9 9 9 10 11 12 17 17 16 16 5 5 23 23 20 25 22 20 19 16 14 11 9 8 8 8 9 9 9 9 9 10
19 20 19 18 15 14 14 13 11 8 4 2 4 6 8 6 6 10 9 7 7 7 7 7 7 7 6 5 5 7 6 3 2 2 3 4 4 5 8 8 5 7 7 8 10 11 12 12 11 9 9 8 7 7 7 7 8 9 7 7 10 12 18 19 14 11 4 6 23 25 19 22 20 18 16 14 13 11 10 10 10 10 10 10 10 10 10 10
18 19 20 18 15 14 14 13 11 8 5 4 5 6 8 7 8 11 10 8 7 6 5 5 6 6 6 4 4 6 4 0 1 2 3 5 5 4 7 8 6 6 7 7 8 9 10 10 8 6 7 5 5 7 6 6 8 8 7 6 8 12 14 13 11 9 6 7 20 23 18 20 19 16 15 13 12 12 11 12 12 12 12 12 12 12 12 12
16 19 20 18 15 14 13 13 10 7 5 5 5 7 8 8 9 11 11 9 7 5 3 3 3 4 3 3 4 5 2 2 2 3 3 5 6 3 4 6 6 7 7 7 6 6 8 7 5 3 3 2 3 6 6 6 7 7 6 5 6 10 9 9 12 12 10 12 20 21 16 17 18 16 16 15 14 13 13 13 12 12 13 12 12 12 11 12
15 17 19 18 15 14 13 11 9 6 5 4 4 7 9 10 11 11 11 9 6 4 3 2 1 1 0 2 3 2 3 2 2 3 3 4 4 2 5 6 7 9 9 9 7 8 8 7 4 2 3 4 4 6 6 5 6 7 8 6 6 8 7 10 15 15 18 20 22 20 10 10 15 15 16 16 15 14 13 12 11 10 12 12 11 11 11 13
15 16 17 16 15 14 13 10 8 5 4 4 4 6 8 11 11 11 10 7 5 4 3 3 2 1 0 2 1 1 3 4 4 5 4 3 2 4 5 5 7 10 9 9 8 7 8 7 5 2 3 5 6 6 5 4 5 8 9 8 6 6 6 11 16 17 18 18 20 18 6 6 14 14 14 15 13 12 11 10 10 10 11 11 11 12 13 14
16 15 16 15 14 14 12 10 7 5 4 4 4 6 8 10 10 10 7 4 2 3 3 1 3 3 2 2 2 3 3 5 5 6 6 5 4 4 4 4 6 7 6 6 5 5 6 6 5 4 3 5 6 5 4 4 5 7 8 7 5 4 4 9 13 13 12 11 17 18 8 6 15 16 15 15 13 11 10 10 9 9 9 10 11 11 12 12
16 15 15 14 14 13 11 9 6 4 3 4 4 5 8 9 8 8 5 2 2 2 2 1 2 4 3 3 5 3 4 5 4 5 6 5 4 3 1 3 4 4 3 3 4 4 4 5 5 4 3 4 4 4 3 3 4 7 8 6 4 2 3 8 10 11 11 9 14 18 13 6 10 17 17 15 15 13 11 9 8 8 8 9 10 11 12 13
16 15 14 14 14 13 11 8 6 4 3 4 4 4 7 7 7 7 3 1 1 1 1 2 3 2 1 5 6 4 4 5 4 4 3 3 4 3 1 1 2 3 3 3 4 4 3 4 5 4 3 3 3 2 1 1 2 5 6 4 3 3 4 7 7 9 10 9 9 15 17 8 6 16 21 18 18 16 11 9 8 8 8 9 10 10 12 13
16 15 14 13 14 13 10 8 5 4 3 3 2 3 5 5 6 5 1 2 2 2 3 3 2 1 2 4 6 5 3 4 4 3 2 1 3 4 3 2 1 1 2 4 4 4 3 4 5 5 5 4 2 1 2 2 0 2 4 4 4 4 5 6 7 8 6 5 6 9 15 11 5 14 21 18 17 14 11 9 9 8 8 9 9 10 12 15
17 15 13 13 13 12 9 7 5 3 3 3 2 3 4 3 4 3 1 3 2 2 3 2 1 3 4 5 6 4 2 2 3 2 2 1 2 3 4 4 1 1 3 5 5 4 4 4 3 4 5 5 2 2 2 2 1 2 3 5 5 3 3 4 5 5 3 2 3 5 10 11 7 10 15 15 13 11 11 10 9 8 8 9 9 12 14 17
17 16 13 13 12 11 9 6 4 2 2 2 1 2 3 1 2 3 1 2 2 2 2 2 3 5 6 6 6 5 3 1 2 2 1 1 1 2 4 5 3 2 2 6 7 5 5 3 2 3 3 4 2 3 2 2 2 3 4 6 5 2 1 1 2 2 3 3 3 3 7 8 8 9 9 11 12 12 11 11 9 8 9 9 11 13 16 19
17 16 14 12 11 10 8 6 5 2 2 1 0 2 3 2 1 3 2 1 2 1 2 3 4 5 6 6 6 6 4 2 2 3 2 2 1 2 4 6 6 5 3 4 7 8 5 3 4 4 2 3 4 4 5 4 3 3 4 6 5 3 3 1 2 1 3 4 3 5 6 4 6 7 7 8 10 12 12 11 9 9 9 10 11 14 17 20
16 16 15 13 11 10 8 6 5 3 2 2 1 2 5 4 2 2 1 1 2 3 1 5 4 4 5 6 6 6 4 2 2 3 3 3 1 1 3 5 6 6 4 2 5 8 6 4 5 5 2 3 4 3 3 4 5 4 4 5 4 3 2 2 3 2 2 2 4 6 5 3 3 4 6 10 11 12 12 11 10 9 9 11 12 15 19 21
15 16 15 13 11 10 9 7 5 3 2 2 2 4 5 4 3 2 2 2 3 3 4 8 6 4 4 6 7 6 3 3 3 4 4 3 1 1 2 5 6 6 5 3 3 5 6 4 4 5 4 3 3 2 1 3 4 3 4 4 3 3 3 2 2 3 3 2 3 6 5 4 5 4 6 11 12 12 11 10 10 9 10 11 13 16 19 20
13 15 15 13 12 10 9 8 5 2 1 2 3 4 4 4 3 2 3 2 2 3 6 9 8 6 5 6 8 7 4 3 5 6 5 3 2 2 1 3 5 6 7 5 3 2 4 4 3 4 4 4 4 3 1 2 3 3 4 4 3 2 3 2 2 1 2 1 2 5 5 6 6 6 8 11 12 12 11 11 11 9 10 12 15 17 19 19
13 14 15 14 12 10 9 8 5 2 1 2 2 3 3 3 2 2 4 3 2 5 7 9 8 8 8 7 7 7 5 4 6 7 6 4 3 3 1 2 3 4 6 5 4 2 1 2 3 3 3 4 5 4 3 3 4 3 4 4 3 2 2 3 2 2 2 0 3 5 7 8 8 7 10 14 14 14 13 13 12 10 11 13 15 18 19 19
14 13 14 13 11 10 8 8 6 4 2 2 2 2 1 0 3 5 6 4 1 5 7 9 9 8 9 9 8 8 6 5 6 6 6 5 3 3 3 1 1 2 3 4 3 2 2 1 3 4 4 3 4 5 4 4 4 4 3 4 4 3 2 3 2 1 1 0 2 4 6 10 14 14 14 15 13 13 14 14 13 11 11 13 16 18 19 18
13 13 13 13 11 9 7 7 7 6 5 4 3 2 1 3 6 8 7 4 1 4 7 9 9 8 9 10 10 9 7 6 6 5 5 6 4 4 4 2 2 1 1 2 3 3 3 2 2 4 5 4 4 5 5 4 4 4 4 4 4 4 3 3 3 2 2 2 1 2 3 7 12 14 14 14 13 11 13 14 12 12 12 14 16 17 17 17
13 14 13 12 11 9 7 7 8 7 7 5 3 3 4 5 7 8 7 4 2 3 5 8 9 9 9 10 10 9 8 7 7 5 5 6 5 4 4 4 3 2 2 4 5 6 5 4 3 4 5 6 5 5 5 5 6 5 5 4 4 5 4 3 5 4 3 2 2 1 3 6 7 8 9 12 13 13 13 13 12 12 13 14 16 16 15 16
13 14 12 11 12 10 7 7 7 7 7 5 3 4 5 6 7 9 8 5 3 4 5 7 9 10 10 10 10 9 8 7 7 6 6 7 7 5 6 6 5 4 5 6 7 6 5 5 4 4 5 6 5 5 6 6 6 6 6 5 5 6 4 2 4 5 5 3 3 3 3 7 9 9 8 9 13 15 14 13 13 13 13 14 15 14 15 17
13 12 11 11 12 11 8 8 8 7 6 4 4 5 6 7 7 9 8 5 4 5 6 7 9 11 12 12 11 10 9 7 7 7 7 7 7 7 7 7 6 6 6 7 6 6 6 6 6 5 5 5 5 6 7 7 7 7 7 6 5 5 5 4 2 3 4 5 5 3 3 7 10 11 9 8 12 14 14 14 14 13 14 15 15 14 15 18
13 12 11 11 11 10 9 8 8 7 5 5 6 6 7 8 8 8 8 5 4 4 5 6 8 10 12 12 12 11 10 8 7 8 7 6 6 7 8 8 7 7 6 6 6 6 6 6 6 5 5 5 5 6 7 7 7 7 7 7 7 6 6 5 5 5 4 5 6 3 2 6 9 10 9 10 12 14 15 15 14 14 15 15 14 15 16 19
13 12 11 11 11 10 10 9 8 7 6 6 7 7 8 8 8 7 6 4 3 5 5 5 7 9 11 12 12 11 11 9 8 9 9 8 7 7 8 7 7 7 7 7 7 6 6 6 5 4 2 1 3 5 7 8 7 7 7 8 8 7 7 7 8 7 5 6 6 4 4 8 10 10 10 10 12 14 15 15 15 15 16 15 15 16 17 19
13 12 11 11 11 10 10 10 10 9 8 7 8 9 9 8 8 7 6 3 3 4 6 8 8 9 10 11 12 12 12 11 10 10 10 10 9 8 7 7 6 6 7 7 7 7 7 7 7 6 4 2 2 3 5 8 8 7 8 8 8 8 8 8 8 7 6 7 8 8 9 13 14 13 12 12 12 14 14 15 16 16 15 15 15 16 18 20
12 12 11 11 11 11 11 11 11 10 9 8 8 9 9 8 7 6 4 3 3 4 6 7 9 10 10 10 11 11 12 13 12 11 11 11 10 9 8 7 6 6 6 7 7 7 7 8 8 8 7 7 6 4 5 7 9 9 9 10 10 10 10 10 9 10 10 10 13 14 14 16 15 13 14 14 13 14 15 15 16 15 15 15 16 17 18 20
11 11 11 11 10 10 10 10 10 10 9 8 8 8 8 6 5 4 2 3 4 5 5 6 6 7 9 9 9 10 11 13 14 13 12 11 11 10 10 8 6 5 5 6 6 7 8 9 10 10 10 10 10 9 9 10 11 12 13 13 13 12 13 15 15 15 13 12 14 15 14 15 15 13 13 14 14 14 15 15 15 15 15 16 17 18 19 21
11 11 11 11 10 10 10 10 10 9 9 9 8 8 8 5 3 3 3 3 5 5 6 7 7 5 6 7 8 10 11 11 12 13 13 12 12 11 10 9 7 6 5 5 5 6 7 9 10 11 11 12 12 11 12 12 13 14 15 15 14 14 16 18 18 17 16 16 16 17 17 19 18 15 14 14 14 15 15 15 15 15 16 17 17 18 20 21
12 11 11 11 11 12 12 11 11 10 10 10 10 9 8 6 4 3 4 5 6 7 7 7 7 6 6 7 8 9 10 11 12 12 12 13 13 12 11 10 8 7 6 5 4 4 5 7 8 9 10 11 12 12 13 14 16 17 18 17 15 16 18 19 19 18 19 21 21 20 20 20 16 14 15 16 15 16 16 16 16 16 17 17 18 19 20 21
11 11 11 11 11 12 12 11 12 11 11 11 11 10 10 9 7 5 5 6 7 8 8 7 6 7 7 8 8 7 7 9 11 13 14 13 13 13 13 11 10 9 7 6 5 5 5 5 6 7 9 10 11 12 14 15 17 20 21 20 18 18 19 21 21 20 21 22 20 19 21 19 11 9 13 15 15 16 16 16 16 17 18 18 18 18 20 21
12 12 11 11 11 11 11 11 11 11 11 12 12 11 11 10 8 7 7 8 8 8 8 7 7 8 9 9 9 8 8 9 10 12 14 15 14 14 13 12 12 12 11 9 8 8 7 6 6 6 9 11 11 10 12 15 17 22 26 25 23 22 22 21 21 21 21 20 17 18 20 15 8 7 12 14 14 14 14 15 16 17 18 18 18 19 20 21
12 12 11 11 11 11 11 11 11 11 12 13 13 13 12 11 10 9 9 8 8 7 7 8 9 9 9 9 10 9 10 11 12 12 14 16 17 17 16 14 14 14 14 13 11 10 9 9 8 8 9 12 11 9 11 13 14 18 22 20 18 21 22 22 22 21 20 18 17 18 18 13 10 11 14 14 14 14 13 14 16 17 17 18 18 19 20 20
Wind_Direction
358 354 350 347 344 340 337 334 334 335 335 334 334 335 336 337 337 336 333 330 326 319 314 308 300 293 287 282 277 274 272 270 269 269 267 264 259 254 247 242 240 239 238 233 229 229 223 218 213 208 205 202 201 201 203 206 206 206 209 214 220 223 222 207 173 157 158 154 111 104 64 22 27 48 58 95 137 101 103 123 140 150 153 157 170 183 181 172
359 356 353 351 349 346 343 341 341 342 343 342 342 341 340 340 338 336 332 330 327 322 317 310 302 293 287 285 281 277 274 273 275 276 276 274 271 263 253 243 238 236 231 226 225 221 213 207 205 202 198 192 191 193 196 198 199 202 206 215 220 221 217 201 177 163 164 168 125 119 107 31 20 26 23 101 171 115 126 139 139 150 158 162 163 165 167 163
3 360 358 357 357 353 350 350 351 353 354 353 351 347 345 343 341 338 335 332 328 325 320 311 302 291 289 288 284 286 281 283 284 289 291 286 282 273 261 242 229 228 223 218 213 207 199 192 192 195 191 185 184 187 189 191 193 197 204 216 222 219 208 190 179 169 148 136 119 103 124 47 357 29 36 348 117 102 117 124 135 155 163 160 153 153 158 160
10 7 5 5 4 1 358 358 358 358 358 357 352 346 345 345 343 342 340 337 333 331 327 315 303 296 306 303 307 300 266 297 316 317 322 311 300 281 255 227 216 216 214 209 201 192 180 172 173 181 184 183 182 183 185 187 186 185 185 192 205 199 182 170 161 147 133 131 122 98 115 167 262 276 55 44 44 65 102 115 131 142 146 149 149 154 162 165
14 12 11 9 6 4 0 358 357 355 354 352 348 344 344 345 345 347 347 347 344 339 334 320 311 311 330 314 301 261 242 308 335 322 320 313 308 276 235 214 210 209 207 204 196 185 169 160 163 170 177 176 174 177 179 180 180 175 156 135 145 152 150 156 148 142 153 131 94 89 81 186 226 251 285 331 342 342 70 99 125 136 140 151 157 166 174 178
14 10 7 4 1 358 355 352 350 349 347 347 345 342 343 346 348 353 355 355 355 345 335 326 323 340 6 349 273 257 252 295 292 309 317 302 290 254 218 207 207 207 206 203 196 188 174 163 159 159 164 161 151 159 167 168 180 179 168 158 152 148 140 146 161 160 145 98 84 64 22 294 249 259 273 284 303 305 301 356 110 130 137 154 167 177 182 185
8 3 359 355 351 348 346 343 341 341 342 344 343 341 343 347 350 354 356 358 358 344 335 335 349 23 30 36 13 329 325 317 297 315 318 295 263 201 179 190 201 207 208 206 201 201 193 182 171 162 160 156 143 151 161 163 189 189 186 189 187 179 158 148 158 144 119 107 93 54 70 244 271 263 260 263 265 259 257 232 156 148 145 154 164 173 178 183
1 355 350 346 342 340 338 336 335 336 339 343 343 341 344 348 350 352 353 356 357 346 339 16 57 53 48 47 30 25 32 356 334 330 306 218 186 161 149 170 189 199 202 202 199 201 203 198 187 174 167 163 147 150 160 163 194 191 189 199 202 192 168 150 143 132 123 119 108 108 143 166 177 196 216 219 193 169 191 191 169 165 161 158 159 163 173 181
356 351 346 343 340 337 338 337 338 341 345 348 346 343 344 345 348 349 348 353 356 7 97 109 83 61 50 42 25 39 60 59 53 79 109 134 156 159 159 170 182 188 188 188 189 192 194 197 190 178 174 170 148 144 160 164 188 185 167 166 163 146 149 147 146 146 137 128 154 153 136 136 151 168 178 179 172 158 175 184 171 172 170 163 162 163 169 177
359 354 351 349 347 346 350 352 353 355 357 357 351 345 342 342 346 346 343 349 9 93 125 117 88 65 53 51 51 59 74 88 101 101 93 98 119 155 167 172 179 184 184 178 185 192 186 186 186 175 171 166 145 138 151 148 168 173 153 145 146 144 148 155 161 160 141 138 158 160 137 127 145 165 163 159 160 153 165 172 163 164 161 158 160 162 166 173
5 1 0 360 0 4 8 7 7 5 3 1 352 346 343 343 350 349 344 354 72 104 117 110 87 67 56 58 59 57 62 82 111 111 97 89 83 140 172 178 184 189 193 187 186 194 190 187 182 171 163 154 145 147 148 139 147 155 153 157 164 160 156 162 169 162 149 141 127 150 150 131 141 162 153 145 147 153 162 156 148 149 149 151 155 157 162 168
9 7 6 7 8 11 14 12 7 4 1 357 350 349 352 354 0 1 9 64 92 100 100 94 86 70 58 58 56 53 57 69 110 122 107 105 93 105 166 178 186 191 207 210 206 205 200 198 187 172 161 150 147 149 149 148 147 147 158 177 183 185 179 178 180 171 168 155 128 138 139 131 141 146 144 148 151 157 170 153 148 150 149 151 155 158 160 165
11 10 7 6 5 7 10 6 0 358 357 356 356 2 9 14 29 56 82 96 100 99 98 99 94 75 64 62 58 55 57 70 104 122 115 114 106 98 130 166 179 186 209 228 232 227 215 211 203 180 164 157 157 152 154 163 167 161 166 186 192 194 187 184 190 188 182 164 148 149 136 136 146 145 148 157 157 168 181 160 157 159 158 158 161 162 163 167
11 10 6 2 1 2 2 358 354 355 357 1 8 21 31 49 81 98 104 106 106 105 103 102 100 83 69 63 61 57 52 60 93 119 123 116 108 104 105 127 152 174 200 219 231 233 225 211 204 193 175 167 170 164 163 167 169 162 156 171 185 184 173 177 190 196 193 166 160 176 149 145 151 148 156 162 165 186 184 159 163 164 161 164 165 170 173 176
9 8 5 1 359 0 357 351 349 353 360 4 23 44 58 85 105 112 112 110 110 111 102 95 100 85 68 62 61 58 53 53 75 107 119 111 105 106 103 104 110 134 179 179 164 180 195 186 184 190 183 177 178 171 170 166 159 155 145 147 162 166 162 165 166 168 181 159 163 181 150 146 151 151 160 165 171 200 197 167 165 165 166 170 173 180 188 190
7 6 6 3 2 2 356 349 347 353 0 6 38 67 85 106 116 118 114 110 111 112 102 94 94 78 65 69 65 59 58 58 70 91 103 103 100 99 92 83 86 107 121 120 113 119 142 159 167 172 172 174 172 168 168 160 147 133 126 133 143 156 158 149 135 120 141 152 170 177 151 143 148 152 161 170 177 206 213 184 172 174 178 180 184 192 200 206
6 6 7 8 8 5 357 353 350 352 358 9 56 87 108 120 125 123 113 109 108 109 102 97 89 68 64 78 75 65 64 64 70 82 89 88 85 81 65 49 73 110 111 113 110 113 124 133 142 137 139 147 151 168 158 131 121 109 106 124 134 152 154 140 123 115 148 163 143 155 150 144 150 157 167 181 193 215 228 217 201 197 198 199 206 214 226 234
5 6 7 10 10 4 356 355 355 353 354 13 78 111 124 130 132 127 114 105 106 103 93 89 80 61 61 76 81 71 71 74 74 77 75 68 68 63 46 42 92 116 112 117 111 109 115 115 115 112 113 115 122 159 146 107 101 106 107 116 128 143 145 141 130 118 164 156 131 144 144 142 152 160 170 186 201 225 233 226 218 213 213 216 225 229 237 247
3 5 7 8 9 2 353 355 359 355 354 15 113 134 138 140 138 130 116 103 102 99 88 83 75 64 62 70 76 71 73 79 79 81 71 59 59 55 42 45 95 120 118 120 110 106 112 111 109 100 97 98 99 119 122 100 95 100 103 112 127 134 128 136 136 122 189 142 133 148 143 143 153 158 168 178 186 213 223 216 211 208 213 216 223 229 235 245
2 3 5 5 6 1 355 356 358 358 360 21 137 154 156 149 141 137 126 107 99 94 90 85 71 61 62 68 69 64 69 81 86 83 65 57 58 55 49 43 74 128 129 122 111 105 109 106 100 92 88 91 93 99 104 103 99 94 100 109 123 130 119 120 126 127 179 141 131 143 144 145 154 157 165 172 178 201 212 213 219 219 226 229 233 239 240 244
1 1 2 2 2 360 358 358 357 360 11 36 139 161 165 152 139 142 132 112 104 96 90 88 72 58 64 76 67 52 59 81 90 70 39 48 54 55 57 44 71 136 127 119 113 105 106 101 95 93 93 99 102 104 104 105 111 107 101 103 114 126 123 125 132 134 164 149 135 144 147 147 154 159 164 170 176 193 198 207 228 229 236 239 239 243 243 247
1 358 358 360 360 358 358 359 358 5 26 70 128 156 169 162 149 150 142 127 117 103 92 84 66 55 64 83 70 52 59 83 79 25 4 6 14 47 56 45 79 136 125 117 118 111 107 99 94 93 94 105 115 121 118 115 128 126 118 115 119 131 135 137 144 147 187 172 144 149 152 147 155 163 166 171 182 199 201 205 218 219 224 227 229 235 238 245
0 358 356 358 359 358 358 359 360 10 37 83 116 147 171 170 158 157 154 144 130 114 96 72 58 65 70 69 44 33 42 199 322 346 334 345 350 32 56 47 76 131 133 123 122 113 102 94 98 93 83 99 122 130 130 129 135 130 134 151 141 143 149 152 159 163 192 183 157 161 159 150 157 167 172 180 194 209 213 212 218 220 222 226 232 241 247 254
359 357 355 357 0 359 359 360 1 15 41 75 116 150 171 168 157 160 163 153 140 130 101 71 70 77 61 23 6 13 24 238 325 345 325 342 348 17 72 70 91 132 136 123 122 116 100 91 98 94 92 122 151 139 132 131 135 128 131 155 161 158 168 174 171 169 162 161 169 172 158 152 164 174 181 190 199 209 214 213 219 225 227 232 237 243 253 264
359 359 356 357 1 360 1 2 4 21 50 78 129 158 168 165 156 159 164 154 142 131 91 83 109 75 357 332 345 31 81 94 40 23 357 349 350 55 109 106 103 119 127 122 128 124 99 79 81 126 156 151 163 150 131 126 139 133 123 127 158 171 183 178 174 170 152 151 172 177 153 154 179 187 192 198 202 205 209 210 213 224 228 232 239 249 265 277
359 1 358 357 359 359 2 6 8 27 68 97 138 158 165 169 164 162 161 149 145 142 104 77 65 64 319 326 327 124 80 77 72 52 43 46 60 94 119 132 112 112 125 128 128 121 96 75 75 118 165 149 154 149 134 139 147 138 126 119 139 168 185 183 181 177 162 161 181 187 177 175 189 200 205 206 208 208 216 223 224 235 244 251 262 275 284 289
358 3 1 358 357 358 3 9 15 31 71 99 128 153 162 170 175 176 166 135 138 167 162 108 55 34 351 11 118 137 94 92 83 63 61 69 87 92 104 139 135 126 136 142 133 115 105 102 98 107 148 161 156 142 137 152 149 143 137 124 130 144 172 189 193 193 187 186 191 197 213 193 194 206 209 213 220 222 233 239 240 250 262 274 283 291 298 306
356 2 3 360 357 359 6 12 21 39 67 98 121 150 163 170 180 186 176 94 94 164 186 264 349 349 2 98 126 116 95 101 90 77 65 51 77 90 80 135 150 146 135 154 163 144 131 139 134 127 151 166 141 121 135 152 142 149 148 138 143 141 162 184 194 205 208 199 196 208 221 214 201 204 205 214 223 227 236 238 244 257 268 280 288 295 303 312
356 360 2 1 359 1 8 13 23 40 63 93 115 151 172 180 188 193 191 102 146 170 314 340 331 325 67 130 136 111 101 106 95 87 67 36 67 63 9 115 147 155 124 124 146 142 141 156 158 157 165 155 128 131 198 196 126 157 160 158 177 187 178 180 195 211 208 203 209 212 214 220 206 199 201 209 217 222 228 232 244 258 270 280 286 296 307 317
354 357 360 1 360 1 6 11 21 36 53 78 102 161 179 189 192 192 197 198 207 318 328 336 345 158 144 148 140 119 121 124 110 99 92 65 57 43 28 42 66 161 143 137 138 128 121 139 158 165 158 146 139 221 249 279 354 173 188 200 215 218 199 200 219 222 210 218 230 212 213 223 215 204 211 219 226 226 222 232 250 261 276 284 290 306 320 327
351 355 359 1 0 0 1 0 10 30 48 59 73 162 170 185 194 179 158 206 219 358 350 346 14 151 153 160 157 142 151 161 143 140 129 101 37 35 38 33 52 160 159 162 158 146 145 151 157 153 150 149 162 248 267 275 234 190 214 216 212 203 199 217 226 217 206 236 245 216 216 224 224 220 223 226 229 223 220 238 255 266 280 291 302 318 328 332
347 351 355 359 360 358 353 350 355 16 35 42 59 158 173 212 209 174 181 228 223 12 25 78 118 143 148 154 160 153 141 127 169 192 210 176 314 357 30 32 49 79 141 174 170 159 164 185 179 154 155 162 196 229 205 209 220 216 229 223 210 131 92 246 241 215 224 241 258 225 210 221 236 240 231 219 218 220 229 245 255 269 286 298 310 322 330 333
344 347 351 355 357 352 346 340 338 335 341 351 214 226 242 265 230 178 173 183 202 330 25 135 139 139 152 156 156 161 152 95 135 189 218 192 161 13 32 34 36 42 67 174 181 175 173 184 177 166 173 192 215 219 195 196 208 212 217 215 200 119 75 268 265 311 268 251 241 204 200 225 241 239 228 211 213 222 230 241 254 269 284 294 308 322 330 333
341 344 347 348 349 345 337 333 333 323 307 293 233 275 265 249 201 182 219 241 250 298 173 164 149 135 165 171 163 172 174 134 139 160 179 190 174 59 49 35 28 33 51 136 177 184 183 182 177 173 173 197 215 224 207 205 194 183 196 203 203 180 154 221 230 230 223 197 173 178 191 214 198 195 195 193 200 212 224 238 252 265 279 294 311 323 330 333
340 340 342 342 340 336 329 325 332 335 320 289 278 290 263 225 163 115 25 301 261 263 184 176 167 152 166 175 180 188 179 163 167 157 164 190 198 124 54 34 37 41 49 91 150 184 188 188 187 187 189 200 224 243 249 221 206 196 204 206 212 222 213 192 190 207 191 145 165 186 198 208 197 196 193 192 200 209 224 242 251 267 286 300 313 322 329 332
338 337 336 336 332 328 322 320 326 345 339 288 281 278 235 190 146 93 34 1 229 204 184 185 184 177 171 172 187 199 197 184 181 170 167 174 184 185 99 48 57 49 42 61 89 139 174 177 184 196 210 229 249 265 286 238 233 239 231 218 199 209 227 198 156 138 147 138 211 205 212 221 218 230 225 214 212 216 229 247 256 273 290 300 311 320 326 327
334 334 332 331 327 321 316 314 318 324 296 274 275 258 205 156 111 13 9 23 171 185 187 193 196 194 188 180 184 192 196 197 191 185 178 174 183 194 173 63 73 54 31 40 59 69 120 168 185 192 214 238 251 259 262 255 261 266 239 215 202 221 252 212 169 64 69 204 250 225 225 225 216 224 231 226 224 227 237 251 259 273 289 300 311 319 323 323
328 329 328 327 323 319 313 310 312 307 296 300 288 259 233 57 11 346 344 2 161 192 200 206 208 203 197 194 192 194 202 208 202 197 193 191 197 199 200 206 112 90 21 17 32 28 11 296 214 212 220 228 234 244 254 256 258 259 232 221 242 256 239 198 184 66 90 245 285 252 235 232 231 237 240 236 234 237 243 250 257 271 289 301 311 317 321 323
323 325 325 324 322 318 309 303 307 303 301 319 311 288 318 351 353 346 336 337 311 209 211 214 213 210 203 202 202 206 213 213 203 201 205 205 204 201 205 212 185 157 346 332 336 333 319 302 234 221 229 229 233 239 240 235 231 231 228 241 262 261 244 230 225 206 174 185 281 283 264 249 250 257 259 252 247 244 244 248 257 273 289 302 313 319 324 327
319 321 322 321 320 316 301 290 296 298 299 313 314 306 334 348 351 352 343 329 300 245 233 224 220 219 212 206 207 210 213 212 209 216 226 214 204 203 205 205 214 239 284 296 302 302 291 275 248 238 236 234 241 241 232 223 216 220 233 247 260 260 263 260 243 232 213 184 165 191 273 275 281 294 283 259 250 249 247 250 260 275 290 305 317 322 326 330
313 317 316 315 315 310 295 282 285 296 301 306 309 312 326 338 347 354 349 329 279 257 255 236 226 227 223 216 213 212 214 216 217 225 233 225 217 208 195 193 211 239 266 288 294 284 271 259 254 253 244 239 241 242 238 233 229 237 251 259 266 266 260 255 246 238 230 221 192 185 257 283 294 305 299 263 248 247 248 251 260 274 292 307 316 321 325 331
307 310 306 307 309 303 293 282 284 298 305 304 315 322 323 326 336 346 344 328 286 264 259 246 235 233 230 227 223 219 220 221 221 224 228 226 220 208 197 200 217 243 267 290 295 274 251 250 259 256 248 250 245 241 241 241 245 256 263 266 270 265 248 228 226 238 234 241 245 234 261 285 293 301 298 265 245 242 244 251 262 277 294 305 311 316 323 329
299 301 297 297 300 297 290 283 285 297 302 305 320 325 321 321 326 336 338 324 289 280 273 257 244 237 234 233 230 225 223 222 219 216 210 202 201 200 203 212 228 248 272 295 299 278 244 240 249 242 239 245 232 224 229 234 245 254 259 264 261 256 254 246 250 268 263 246 246 244 256 276 291 303 296 272 255 248 249 258 270 283 295 302 306 311 319 327
293 293 289 287 287 288 285 280 283 292 291 299 315 318 318 318 315 323 332 313 272 273 274 267 255 244 236 233 231 229 227 225 215 205 197 192 197 205 213 222 237 257 279 297 298 278 242 225 221 203 183 237 232 228 229 230 235 242 248 254 253 252 257 259 263 271 268 254 245 228 245 276 295 304 294 281 268 259 259 266 275 286 294 299 303 307 315 326
286 284 280 277 278 283 282 278 282 286 283 291 307 313 316 314 307 316 328 322 298 284 276 274 266 250 238 235 233 231 231 229 221 212 205 201 206 216 223 231 247 268 286 295 291 270 240 223 217 202 175 182 227 236 229 223 221 226 235 243 253 259 259 263 268 260 254 256 246 239 263 283 293 295 291 286 276 268 268 272 279 288 293 296 299 304 314 325
277 275 273 270 273 278 277 275 279 281 281 289 304 313 316 311 304 311 321 322 321 315 303 293 274 251 240 240 238 235 235 233 227 224 216 210 214 222 227 238 256 273 287 294 284 260 236 226 225 225 223 228 237 239 231 226 225 229 236 238 245 253 257 260 258 253 259 267 262 264 279 287 291 295 292 286 278 272 272 276 282 288 290 292 297 303 315 324
270 268 266 264 267 270 271 273 276 277 283 294 305 311 315 314 306 308 324 326 319 323 332 330 305 266 248 246 244 242 242 237 233 232 227 223 226 227 230 241 255 266 285 292 271 247 237 233 232 235 240 247 251 249 247 246 245 247 249 246 244 245 249 250 250 255 264 266 267 279 293 293 293 298 294 286 279 274 275 278 281 283 285 290 296 305 318 325
263 260 257 255 256 260 267 271 274 279 288 295 299 302 307 314 316 314 322 326 326 332 338 345 346 317 275 264 256 251 250 244 238 236 233 231 230 229 232 238 244 255 274 281 263 245 238 236 237 241 245 250 254 253 252 255 258 258 258 256 251 245 245 248 251 258 263 263 270 287 295 290 290 293 290 285 280 277 277 277 277 279 284 291 298 308 319 324
258 253 249 249 251 256 263 265 267 275 282 284 288 293 295 303 311 307 307 312 320 326 331 341 349 338 311 295 280 267 259 248 239 236 235 233 230 231 231 230 234 242 251 257 256 245 237 236 240 245 249 253 255 257 259 261 262 262 262 261 258 254 251 252 254 259 263 267 273 282 285 284 289 293 287 281 276 277 279 279 277 280 286 293 301 311 320 324
255 249 243 245 248 252 256 257 259 265 269 272 279 285 288 294 296 291 293 303 310 316 325 335 330 319 315 307 296 295 287 265 250 243 240 237 234 234 234 233 234 231 229 237 243 242 246 242 236 250 263 263 259 259 260 262 265 266 264 260 257 257 256 254 255 259 264 268 274 277 278 282 296 297 282 275 275 277 280 280 279 281 287 295 304 313 320 324
251 246 243 243 244 246 249 252 254 259 262 267 275 280 282 286 286 285 289 297 308 313 318 322 315 306 305 303 303 312 311 294 277 259 251 247 242 241 239 240 241 234 229 235 242 245 249 248 250 270 281 280 278 271 262 263 268 269 266 262 257 253 253 254 257 260 263 267 273 272 273 283 305 294 275 273 274 277 279 280 280 282 289 298 306 313 319 322
244 243 243 242 243 245 249 254 258 261 264 269 274 274 274 275 277 282 289 297 307 311 309 313 314 306 300 302 306 304 294 292 292 281 267 257 251 248 246 245 244 241 239 241 245 244 240 249 267 280 281 286 292 290 282 282 279 272 273 274 264 253 252 255 259 262 261 260 263 267 272 283 290 280 276 278 278 280 284 284 283 285 291 300 307 313 317 318
Height
3139 3139 3138 3137 3137 3136 3135 3135 3134 3134 3133 3132 3132 3131 3131 3130 3129 3129 3128 3127 3127 3126 3126 3126 3125 3125 3125 3124 3124 3124 3124 3124 3124 3124 3124 3124 3125 3125 3125 3125 3125 3126 3126 3126 3126 3127 3128 3129 3129 3130 3131 3132 3132 3133 3134 3135 3137 3139 3140 3142 3142 3144 3146 3148 3150 3152 3153 3154 3154 3155 3155 3155 3155 3155 3154 3154 3154 3154 3154 3155 3156 3156 3157 3158 3160 3162 3164 3165
3139 3139 3138 3137 3137 3136 3135 3134 3134 3133 3133 3132 3132 3131 3130 3130 3129 3128 3128 3127 3126 3126 3125 3125 3125 3124 3124 3124 3124 3124 3124 3124 3124 3124 3124 3124 3124 3124 3125 3125 3125 3125 3125 3125 3126 3127 3128 3128 3129 3130 3130 3131 3132 3133 3133 3135 3136 3138 3140 3141 3142 3144 3146 3148 3150 3151 3152 3153 3154 3154 3155 3154 3154 3154 3154 3155 3155 3155 3155 3156 3156 3157 3158 3158 3160 3162 3163 3164
3139 3139 3138 3137 3137 3136 3135 3134 3134 3133 3133 3132 3131 3131 3130 3129 3129 3128 3127 3127 3126 3125 3125 3124 3124 3124 3124 3124 3124 3124 3124 3124 3124 3124 3124 3124 3124 3124 3124 3125 3125 3125 3125 3126 3126 3126 3127 3128 3129 3129 3130 3131 3131 3132 3133 3134 3136 3138 3140 3141 3142 3144 3146 3147 3149 3151 3152 3153 3154 3154 3154 3154 3154 3154 3154 3154 3155 3155 3156 3156 3156 3157 3158 3159 3160 3162 3163 3164
3140 3139 3138 3138 3137 3136 3135 3134 3134 3133 3132 3132 3131 3130 3129 3129 3128 3127 3127 3126 3125 3125 3125 3124 3124 3124 3124 3124 3124 3124 3124 3124 3124 3124 3124 3124 3124 3124 3124 3124 3124 3125 3125 3125 3126 3127 3127 3128 3129 3129 3130 3130 3131 3132 3133 3134 3136 3138 3140 3141 3142 3144 3145 3147 3149 3150 3151 3152 3153 3154 3154 3154 3153 3154 3154 3155 3155 3156 3156 3157 3157 3158 3159 3160 3161 3162 3163 3163
3140 3139 3138 3138 3137 3136 3135 3134 3134 3133 3132 3131 3131 3130 3129 3128 3128 3127 3126 3126 3125 3125 3125 3124 3124 3124 3124 3124 3124 3124 3124 3124 3124 3124 3124 3124 3124 3124 3124 3124 3124 3124 3125 3125 3126 3127 3127 3128 3129 3129 3130 3130 3131 3132 3134 3135 3136 3138 3140 3141 3142 3143 3145 3147 3148 3149 3151 3152 3153 3153 3154 3154 3153 3153 3154 3155 3155 3156 3157 3157 3158 3159 3160 3160 3161 3162 3162 3163
3140 3140 3139 3138 3137 3136 3135 3134 3134 3133 3132 3131 3130 3129 3128 3128 3127 3126 3126 3125 3125 3125 3124 3124 3124 3124 3124 3124 3124 3124 3124 3124 3124 3124 3124 3124 3124 3124 3124 3124 3124 3125 3125 3125 3126 3127 3128 3128 3129 3129 3130 3131 3132 3133 3134 3135 3137 3138 3140 3141 3142 3143 3145 3146 3147 3149 3150 3151 3152 3153 3153 3153 3153 3154 3154 3154 3155 3156 3156 3157 3158 3159 3160 3161 3161 3162 3163 3164
3141 3140 3139 3138 3137 3136 3135 3134 3133 3132 3132 3131 3130 3128 3128 3127 3127 3126 3126 3125 3125 3125 3124 3124 3124 3124 3124 3124 3124 3124 3124 3124 3124 3124 3124 3124 3124 3124 3124 3124 3124 3125 3125 3126 3127 3127 3128 3129 3130 3130 3131 3132 3132 3133 3134 3136 3136 3137 3139 3141 3142 3143 3144 3146 3147 3149 3150 3151 3151 3151 3151 3152 3152 3153 3153 3153 3153 3154 3155 3156 3157 3158 3159 3160 3161 3162 3163 3163
3141 3140 3139 3138 3137 3136 3135 3134 3133 3132 3131 3130 3129 3128 3128 3127 3127 3126 3126 3125 3125 3125 3125 3124 3124 3124 3125 3124 3124 3125 3125 3124 3124 3124 3124 3124 3124 3124 3124 3124 3124 3125 3125 3126 3127 3127 3128 3129 3130 3130 3131 3132 3133 3134 3135 3135 3136 3137 3139 3140 3141 3143 3144 3145 3147 3148 3149 3150 3150 3150 3150 3150 3151 3152 3152 3152 3152 3153 3154 3155 3156 3157 3158 3159 3161 3162 3163 3163
3142 3140 3139 3138 3137 3135 3134 3133 3132 3132 3131 3130 3129 3128 3127 3127 3127 3126 3126 3125 3125 3125 3125 3125 3125 3125 3125 3125 3125 3125 3125 3124 3124 3124 3124 3123 3123 3123 3124 3124 3124 3125 3126 3126 3127 3127 3128 3129 3130 3131 3132 3132 3133 3134 3134 3135 3136 3137 3139 3140 3141 3142 3143 3145 3146 3148 3149 3149 3149 3148 3148 3149 3150 3150 3151 3151 3152 3152 3153 3154 3155 3156 3158 3159 3160 3161 3162 3162
3142 3140 3139 3137 3136 3135 3134 3133 3132 3131 3131 3130 3129 3128 3127 3127 3126 3126 3125 3125 3125 3125 3125 3125 3126 3126 3126 3125 3125 3125 3125 3125 3124 3124 3124 3124 3123 3123 3123 3124 3125 3125 3126 3126 3127 3128 3129 3129 3130 3131 3132 3132 3133 3134 3134 3135 3135 3137 3138 3139 3141 3142 3143 3145 3146 3147 3148 3148 3148 3147 3148 3148 3149 3150 3151 3151 3151 3152 3153 3154 3155 3156 3158 3159 3160 3161 3162 3162
3142 3140 3139 3137 3136 3135 3134 3133 3132 3131 3130 3130 3129 3128 3127 3127 3126 3126 3125 3125 3125 3126 3126 3126 3126 3127 3127 3126 3126 3126 3125 3125 3125 3124 3124 3124 3124 3124 3123 3124 3124 3125 3126 3126 3127 3128 3129 3129 3130 3131 3131 3132 3133 3134 3134 3135 3135 3136 3138 3139 3141 3142 3144 3145 3146 3147 3147 3146 3147 3147 3147 3148 3149 3150 3150 3151 3152 3153 3154 3155 3155 3157 3158 3159 3160 3161 3162 3162
3142 3140 3139 3138 3136 3135 3134 3133 3132 3131 3130 3129 3128 3128 3127 3126 3126 3126 3125 3126 3126 3126 3127 3127 3127 3127 3127 3127 3127 3126 3126 3125 3125 3125 3125 3124 3124 3124 3123 3124 3124 3125 3126 3126 3126 3127 3128 3129 3130 3131 3131 3132 3133 3134 3134 3135 3136 3137 3138 3139 3140 3142 3143 3144 3145 3146 3146 3146 3146 3146 3147 3149 3149 3149 3150 3151 3152 3153 3154 3155 3156 3157 3157 3158 3159 3160 3161 3162
3142 3141 3139 3138 3137 3136 3134 3133 3132 3131 3130 3129 3128 3127 3127 3126 3126 3126 3126 3126 3127 3127 3127 3127 3128 3128 3128 3128 3127 3127 3126 3126 3126 3126 3125 3125 3124 3124 3124 3124 3125 3125 3126 3126 3126 3126 3127 3129 3130 3131 3131 3132 3133 3133 3134 3135 3136 3137 3137 3138 3139 3141 3142 3143 3143 3143 3144 3145 3146 3146 3147 3149 3149 3149 3150 3151 3152 3154 3155 3155 3156 3157 3158 3158 3159 3160 3161 3161
3143 3141 3140 3138 3137 3136 3134 3133 3132 3131 3130 3129 3128 3127 3127 3127 3126 3126 3127 3127 3127 3127 3128 3128 3128 3128 3128 3128 3128 3127 3127 3126 3126 3126 3126 3125 3125 3125 3125 3125 3126 3126 3126 3126 3126 3126 3127 3128 3129 3130 3131 3132 3132 3133 3134 3135 3135 3136 3137 3137 3138 3139 3140 3141 3141 3141 3143 3144 3145 3145 3146 3149 3150 3150 3151 3152 3153 3154 3155 3155 3156 3157 3158 3159 3159 3160 3161 3161
3143 3141 3140 3138 3137 3136 3134 3133 3132 3131 3130 3129 3128 3127 3127 3127 3127 3127 3127 3128 3128 3128 3128 3129 3129 3129 3129 3129 3128 3128 3127 3127 3126 3126 3126 3126 3126 3126 3126 3126 3126 3126 3126 3126 3125 3125 3126 3127 3129 3130 3131 3131 3132 3133 3133 3134 3135 3135 3136 3136 3136 3137 3138 3139 3139 3140 3142 3143 3145 3145 3146 3149 3150 3151 3153 3153 3154 3155 3155 3156 3156 3157 3158 3159 3159 3160 3160 3160
3143 3141 3140 3138 3137 3135 3134 3132 3131 3130 3130 3129 3128 3128 3128 3128 3128 3128 3128 3129 3129 3129 3129 3129 3129 3129 3129 3129 3129 3128 3128 3127 3127 3127 3127 3127 3127 3127 3127 3127 3127 3127 3126 3126 3126 3126 3126 3127 3129 3130 3131 3131 3132 3133 3133 3134 3135 3135 3135 3135 3135 3135 3136 3138 3139 3141 3142 3143 3144 3144 3145 3149 3151 3152 3153 3154 3155 3156 3156 3156 3157 3157 3158 3158 3159 3159 3160 3160
3143 3142 3140 3138 3137 3135 3134 3132 3131 3130 3130 3129 3128 3128 3128 3128 3129 3129 3129 3129 3130 3130 3130 3130 3130 3130 3130 3129 3129 3129 3128 3128 3127 3128 3128 3128 3128 3128 3127 3127 3127 3127 3127 3127 3127 3127 3127 3128 3129 3130 3131 3131 3132 3133 3133 3134 3134 3134 3134 3134 3134 3135 3136 3137 3139 3141 3142 3143 3144 3144 3145 3149 3151 3152 3154 3155 3155 3156 3157 3157 3157 3157 3158 3158 3159 3159 3159 3159
3143 3142 3140 3139 3137 3135 3134 3132 3131 3130 3129 3129 3129 3129 3129 3129 3129 3130 3130 3130 3130 3130 3131 3131 3131 3130 3130 3130 3129 3129 3129 3128 3128 3128 3129 3129 3129 3128 3128 3128 3128 3128 3127 3127 3128 3128 3128 3129 3130 3131 3131 3132 3132 3132 3133 3134 3134 3134 3134 3133 3133 3134 3136 3137 3138 3141 3142 3143 3144 3145 3146 3148 3151 3152 3153 3155 3155 3156 3157 3157 3157 3157 3157 3158 3158 3158 3159 3159
3143 3142 3140 3139 3137 3135 3134 3132 3131 3130 3129 3129 3129 3129 3129 3129 3130 3130 3131 3131 3131 3131 3131 3131 3131 3131 3131 3130 3130 3130 3130 3129 3129 3129 3130 3129 3129 3129 3129 3128 3128 3128 3128 3128 3129 3129 3129 3130 3131 3131 3131 3132 3132 3133 3133 3134 3135 3134 3134 3134 3134 3135 3136 3138 3139 3141 3143 3143 3145 3146 3146 3148 3150 3152 3153 3154 3155 3156 3157 3157 3157 3157 3158 3158 3158 3158 3158 3158
3143 3142 3140 3139 3137 3136 3134 3132 3131 3130 3129 3129 3129 3129 3129 3130 3130 3131 3131 3131 3132 3132 3132 3132 3132 3132 3132 3131 3131 3131 3130 3130 3130 3130 3130 3130 3130 3130 3129 3129 3129 3129 3129 3129 3129 3130 3130 3131 3131 3132 3132 3133 3133 3133 3134 3135 3135 3135 3135 3135 3135 3136 3137 3140 3140 3142 3144 3144 3146 3147 3147 3149 3150 3152 3153 3154 3155 3156 3156 3157 3157 3157 3157 3157 3158 3158 3158 3158
3144 3142 3140 3139 3137 3136 3134 3132 3131 3130 3129 3128 3128 3129 3130 3130 3131 3131 3131 3132 3132 3132 3132 3132 3132 3132 3132 3132 3132 3132 3131 3131 3131 3131 3131 3131 3130 3130 3129 3129 3129 3130 3130 3130 3130 3131 3131 3131 3132 3133 3133 3134 3134 3135 3135 3136 3136 3136 3136 3136 3137 3137 3139 3141 3142 3143 3144 3145 3148 3149 3148 3150 3152 3152 3153 3154 3155 3156 3156 3156 3156 3157 3157 3157 3157 3157 3157 3157
3144 3142 3140 3139 3137 3136 3134 3132 3131 3130 3129 3128 3128 3129 3130 3130 3131 3131 3132 3132 3132 3132 3133 3133 3132 3132 3132 3132 3132 3132 3132 3132 3132 3131 3131 3130 3130 3130 3130 3130 3130 3130 3130 3131 3131 3131 3132 3132 3133 3134 3134 3135 3135 3135 3136 3136 3137 3137 3138 3137 3138 3139 3140 3142 3143 3144 3144 3145 3148 3150 3149 3150 3152 3153 3154 3154 3155 3155 3156 3156 3156 3156 3156 3157 3157 3156 3156 3156
3144 3142 3140 3138 3137 3136 3134 3132 3131 3130 3129 3129 3129 3129 3130 3130 3130 3131 3132 3132 3133 3133 3133 3133 3133 3133 3133 3132 3132 3132 3132 3132 3132 3131 3131 3131 3130 3131 3131 3130 3130 3131 3131 3131 3131 3132 3132 3133 3134 3134 3135 3135 3135 3136 3136 3137 3137 3138 3139 3139 3139 3140 3140 3142 3143 3144 3145 3145 3147 3149 3150 3151 3153 3153 3154 3154 3155 3155 3155 3155 3155 3155 3156 3156 3156 3155 3155 3155
3144 3142 3140 3138 3137 3136 3134 3132 3131 3130 3129 3129 3129 3129 3130 3130 3131 3131 3132 3132 3133 3133 3133 3133 3133 3133 3133 3133 3132 3133 3132 3132 3132 3132 3131 3131 3131 3131 3131 3131 3131 3131 3131 3132 3132 3133 3133 3134 3135 3135 3135 3136 3136 3136 3137 3137 3137 3138 3139 3139 3140 3140 3141 3142 3143 3144 3146 3147 3147 3148 3150 3152 3152 3153 3153 3153 3154 3154 3154 3154 3155 3155 3155 3155 3154 3154 3154 3154
3144 3142 3140 3138 3137 3136 3134 3133 3131 3130 3129 3129 3129 3129 3130 3131 3131 3131 3132 3133 3133 3133 3133 3133 3133 3133 3133 3133 3132 3132 3132 3132 3132 3131 3131 3131 3131 3131 3132 3132 3132 3132 3132 3132 3133 3133 3134 3134 3135 3135 3136 3136 3136 3136 3137 3137 3138 3139 3139 3140 3140 3141 3141 3141 3142 3143 3146 3148 3148 3148 3150 3152 3152 3152 3153 3152 3152 3153 3153 3153 3154 3154 3154 3154 3153 3153 3153 3153
3143 3142 3140 3138 3137 3136 3135 3133 3132 3130 3129 3129 3129 3129 3130 3131 3132 3132 3132 3133 3133 3133 3133 3133 3133 3132 3132 3132 3132 3132 3132 3132 3132 3131 3131 3131 3131 3131 3132 3133 3133 3132 3133 3133 3134 3134 3135 3135 3136 3136 3136 3136 3136 3136 3137 3138 3138 3139 3140 3140 3141 3141 3141 3142 3142 3143 3144 3146 3148 3147 3148 3151 3151 3151 3151 3151 3152 3152 3153 3153 3153 3153 3153 3152 3152 3152 3151 3151
3143 3142 3140 3138 3137 3136 3135 3133 3132 3131 3130 3130 3130 3130 3131 3131 3132 3132 3132 3133 3133 3133 3133 3133 3133 3132 3132 3132 3132 3132 3132 3132 3132 3132 3131 3131 3131 3132 3132 3133 3133 3133 3133 3134 3134 3135 3135 3136 3136 3136 3136 3136 3136 3137 3137 3138 3139 3139 3140 3140 3141 3142 3142 3142 3142 3143 3144 3145 3146 3147 3147 3148 3149 3149 3150 3150 3151 3151 3151 3152 3152 3152 3151 3151 3150 3150 3149 3148
3143 3141 3140 3138 3137 3136 3135 3133 3133 3132 3131 3130 3130 3131 3131 3131 3132 3132 3133 3134 3133 3132 3132 3133 3132 3132 3132 3132 3132 3132 3132 3132 3132 3132 3132 3132 3132 3132 3132 3133 3133 3133 3134 3134 3134 3135 3135 3136 3136 3136 3136 3136 3136 3137 3137 3138 3139 3139 3140 3141 3141 3142 3142 3143 3143 3144 3144 3145 3146 3146 3146 3147 3147 3147 3148 3149 3149 3150 3150 3151 3151 3150 3150 3149 3149 3148 3147 3146
3142 3141 3140 3138 3137 3136 3135 3134 3133 3133 3132 3131 3131 3131 3131 3132 3132 3132 3133 3133 3133 3132 3132 3132 3132 3132 3132 3132 3132 3132 3132 3132 3132 3132 3132 3132 3132 3132 3132 3133 3133 3133 3134 3134 3134 3135 3135 3135 3135 3136 3136 3136 3137 3137 3137 3138 3139 3139 3140 3140 3141 3142 3142 3143 3143 3144 3144 3144 3144 3145 3145 3145 3145 3146 3147 3147 3147 3148 3149 3150 3150 3149 3149 3148 3147 3147 3146 3145
3142 3141 3140 3138 3137 3136 3135 3134 3133 3133 3132 3132 3131 3131 3132 3132 3132 3132 3133 3133 3132 3132 3132 3132 3132 3132 3132 3132 3132 3132 3133 3132 3132 3132 3132 3132 3132 3133 3132 3132 3133 3133 3133 3134 3134 3134 3135 3135 3135 3136 3136 3136 3137 3137 3137 3138 3139 3139 3140 3140 3141 3141 3142 3142 3143 3143 3144 3143 3143 3143 3143 3144 3144 3143 3144 3144 3145 3146 3147 3148 3148 3148 3147 3147 3146 3145 3144 3143
3142 3141 3139 3138 3137 3136 3135 3134 3134 3133 3133 3132 3132 3132 3132 3132 3132 3132 3132 3132 3131 3131 3131 3131 3131 3131 3131 3132 3132 3132 3132 3132 3132 3132 3132 3133 3133 3133 3132 3132 3132 3133 3133 3134 3134 3134 3135 3135 3135 3136 3136 3136 3137 3137 3137 3138 3138 3139 3139 3139 3140 3140 3141 3141 3141 3142 3143 3142 3141 3142 3142 3142 3142 3141 3141 3143 3144 3145 3146 3146 3146 3146 3146 3145 3145 3144 3143 3142
3142 3140 3139 3138 3137 3136 3135 3135 3134 3133 3133 3132 3132 3132 3132 3132 3131 3131 3131 3131 3131 3131 3131 3131 3131 3131 3131 3132 3132 3132 3132 3132 3132 3132 3132 3132 3133 3133 3133 3133 3132 3132 3133 3133 3133 3134 3134 3135 3135 3136 3136 3136 3136 3137 3137 3137 3137 3138 3138 3138 3139 3140 3141 3141 3142 3142 3142 3141 3141 3141 3141 3141 3140 3140 3140 3142 3143 3144 3145 3145 3145 3144 3144 3143 3143 3142 3141 3140
3141 3140 3139 3138 3137 3136 3135 3135 3134 3133 3133 3133 3132 3132 3132 3132 3131 3131 3131 3130 3130 3130 3130 3130 3131 3131 3131 3131 3132 3132 3132 3132 3132 3132 3132 3132 3132 3133 3133 3133 3132 3132 3132 3132 3133 3133 3134 3134 3135 3135 3136 3136 3136 3136 3136 3137 3137 3137 3137 3138 3138 3139 3142 3143 3143 3142 3141 3140 3140 3140 3141 3140 3140 3139 3140 3141 3142 3143 3143 3143 3143 3143 3143 3142 3142 3141 3140 3139
3141 3140 3138 3137 3136 3135 3135 3134 3134 3133 3133 3133 3132 3132 3132 3131 3131 3130 3130 3130 3130 3130 3130 3130 3130 3131 3131 3131 3131 3132 3132 3132 3132 3132 3132 3132 3132 3133 3133 3133 3132 3132 3132 3132 3132 3133 3133 3134 3135 3135 3135 3135 3135 3136 3136 3136 3136 3136 3137 3137 3137 3137 3139 3141 3141 3140 3139 3139 3139 3140 3140 3139 3139 3139 3139 3140 3141 3141 3142 3142 3142 3142 3142 3141 3140 3140 3139 3137
3141 3139 3138 3137 3136 3135 3134 3134 3134 3133 3133 3132 3132 3132 3131 3131 3130 3130 3130 3129 3129 3129 3129 3130 3130 3130 3131 3131 3131 3131 3132 3131 3131 3132 3132 3132 3132 3132 3133 3132 3132 3132 3131 3131 3132 3132 3133 3133 3134 3134 3135 3135 3135 3135 3135 3136 3136 3136 3136 3136 3136 3136 3137 3137 3138 3138 3138 3138 3139 3139 3138 3138 3138 3138 3138 3139 3139 3140 3140 3140 3140 3141 3140 3140 3139 3138 3137 3136
3140 3139 3137 3136 3136 3135 3134 3133 3133 3133 3133 3132 3132 3131 3131 3130 3130 3130 3129 3129 3128 3128 3129 3129 3130 3130 3130 3130 3131 3131 3131 3131 3131 3131 3131 3132 3132 3132 3132 3132 3132 3132 3132 3131 3132 3132 3132 3133 3134 3134 3134 3135 3135 3135 3135 3135 3135 3136 3136 3136 3136 3136 3136 3136 3137 3138 3138 3138 3137 3137 3137 3136 3137 3137 3137 3138 3138 3138 3138 3138 3139 3139 3139 3138 3138 3137 3137 3135
3140 3138 3137 3136 3135 3134 3133 3133 3133 3133 3133 3132 3132 3131 3130 3130 3130 3129 3129 3128 3128 3128 3128 3129 3129 3129 3129 3129 3130 3130 3131 3131 3131 3131 3131 3131 3131 3131 3132 3132 3132 3132 3132 3132 3132 3132 3132 3133 3133 3133 3134 3134 3134 3134 3135 3135 3135 3135 3135 3135 3135 3135 3135 3136 3137 3138 3139 3139 3137 3135 3135 3135 3136 3136 3135 3136 3136 3137 3137 3137 3137 3138 3137 3137 3137 3136 3135 3134
3139 3138 3137 3135 3134 3134 3133 3133 3133 3133 3132 3132 3131 3131 3130 3130 3129 3129 3128 3128 3127 3127 3128 3128 3128 3128 3128 3129 3129 3129 3130 3130 3131 3131 3131 3131 3131 3131 3131 3131 3131 3132 3132 3132 3132 3132 3132 3132 3133 3133 3133 3133 3133 3134 3134 3134 3134 3135 3135 3135 3135 3135 3135 3135 3136 3137 3138 3139 3137 3134 3134 3134 3133 3133 3133 3134 3135 3136 3136 3136 3136 3136 3136 3136 3135 3135 3133 3132
3137 3137 3136 3135 3134 3133 3133 3132 3132 3132 3132 3131 3131 3130 3130 3130 3129 3128 3128 3127 3127 3127 3127 3127 3127 3128 3128 3128 3128 3129 3129 3130 3130 3130 3130 3130 3130 3130 3131 3131 3131 3131 3131 3131 3131 3131 3131 3131 3132 3132 3132 3133 3133 3133 3133 3133 3134 3134 3134 3134 3134 3134 3134 3134 3135 3135 3136 3138 3137 3135 3133 3131 3130 3131 3132 3133 3134 3134 3135 3135 3135 3135 3135 3135 3134 3133 3132 3130
3136 3136 3135 3134 3133 3132 3132 3132 3132 3132 3131 3131 3130 3130 3129 3129 3128 3127 3127 3127 3126 3126 3126 3127 3127 3127 3127 3128 3128 3128 3128 3129 3129 3130 3130 3129 3129 3130 3130 3130 3131 3131 3131 3131 3131 3131 3131 3131 3131 3131 3131 3132 3132 3132 3132 3133 3133 3133 3133 3134 3134 3134 3134 3134 3134 3134 3134 3135 3137 3135 3132 3129 3129 3130 3130 3131 3132 3133 3133 3133 3133 3134 3133 3133 3132 3131 3130 3129
3135 3135 3134 3133 3132 3132 3132 3132 3131 3131 3131 3130 3130 3129 3129 3128 3128 3127 3126 3126 3126 3126 3126 3126 3126 3127 3127 3127 3127 3128 3128 3128 3128 3129 3129 3129 3129 3129 3129 3129 3130 3130 3130 3130 3130 3130 3130 3130 3130 3130 3130 3131 3131 3131 3132 3132 3132 3132 3132 3133 3133 3133 3133 3133 3133 3133 3133 3133 3134 3134 3131 3128 3128 3129 3129 3130 3131 3131 3132 3132 3132 3132 3132 3131 3130 3129 3128 3127
3134 3134 3133 3132 3131 3131 3131 3131 3131 3130 3130 3130 3129 3129 3128 3128 3127 3127 3126 3125 3125 3125 3125 3125 3126 3126 3126 3126 3127 3127 3127 3127 3127 3128 3128 3128 3128 3128 3128 3128 3129 3129 3129 3129 3129 3129 3129 3129 3129 3129 3129 3130 3130 3131 3131 3131 3131 3131 3131 3131 3132 3132 3132 3133 3132 3132 3132 3132 3132 3132 3130 3127 3127 3128 3128 3128 3129 3129 3130 3130 3130 3130 3130 3130 3129 3128 3127 3126
3132 3132 3132 3131 3131 3130 3130 3130 3130 3130 3129 3129 3129 3128 3128 3127 3127 3126 3126 3125 3125 3125 3125 3125 3125 3125 3125 3125 3126 3126 3127 3127 3127 3127 3127 3128 3128 3128 3128 3128 3128 3128 3129 3128 3128 3128 3128 3128 3128 3128 3129 3129 3129 3130 3130 3130 3130 3130 3130 3130 3131 3131 3131 3131 3131 3131 3131 3131 3130 3131 3129 3126 3126 3127 3127 3127 3127 3128 3128 3128 3129 3129 3128 3128 3127 3126 3126 3125
3131 3131 3130 3130 3130 3130 3130 3129 3129 3129 3129 3128 3128 3128 3127 3127 3126 3126 3125 3125 3124 3124 3124 3124 3124 3124 3124 3124 3125 3125 3126 3126 3126 3126 3126 3127 3127 3127 3127 3127 3128 3128 3128 3128 3127 3127 3127 3127 3128 3128 3128 3129 3129 3129 3129 3129 3129 3129 3129 3129 3129 3130 3130 3130 3130 3130 3130 3129 3129 3129 3127 3125 3125 3126 3126 3126 3126 3126 3127 3127 3127 3127 3126 3126 3126 3125 3124 3123
3129 3129 3129 3129 3129 3128 3128 3128 3128 3128 3128 3128 3128 3127 3127 3126 3125 3125 3125 3124 3124 3124 3124 3124 3123 3123 3124 3124 3124 3124 3124 3125 3125 3125 3125 3126 3126 3126 3126 3127 3127 3127 3127 3127 3126 3126 3126 3126 3127 3127 3127 3128 3128 3128 3127 3127 3128 3128 3128 3129 3128 3129 3129 3129 3129 3129 3128 3127 3127 3127 3125 3124 3125 3125 3125 3125 3125 3125 3125 3125 3125 3125 3125 3124 3124 3123 3123 3121
3127 3127 3127 3127 3127 3127 3127 3127 3127 3127 3127 3127 3127 3126 3126 3125 3125 3125 3124 3124 3124 3124 3123 3123 3122 3122 3123 3123 3123 3123 3123 3124 3124 3124 3125 3125 3125 3125 3125 3126 3126 3126 3126 3126 3126 3125 3125 3125 3126 3126 3126 3126 3126 3126 3126 3126 3127 3127 3127 3127 3127 3127 3127 3127 3127 3127 3126 3126 3125 3124 3123 3123 3123 3123 3123 3123 3123 3124 3124 3124 3123 3123 3123 3123 3122 3122 3121 3120
3125 3126 3126 3126 3126 3126 3126 3126 3126 3126 3126 3126 3126 3126 3125 3125 3125 3124 3124 3124 3124 3123 3123 3122 3122 3122 3122 3122 3123 3123 3122 3123 3123 3123 3124 3124 3124 3124 3124 3125 3125 3125 3125 3125 3125 3124 3124 3124 3124 3125 3125 3125 3125 3125 3125 3125 3125 3125 3125 3125 3126 3126 3125 3125 3125 3124 3125 3124 3122 3122 3122 3122 3121 3122 3122 3121 3122 3122 3122 3122 3122 3122 3121 3121 3121 3120 3119 3118
3124 3124 3124 3125 3125 3125 3125 3125 3125 3125 3125 3125 3125 3125 3125 3125 3124 3124 3124 3124 3123 3123 3123 3122 3122 3121 3121 3122 3122 3122 3122 3122 3122 3122 3123 3123 3123 3123 3123 3124 3124 3124 3125 3125 3124 3123 3123 3123 3123 3123 3123 3123 3124 3124 3124 3124 3123 3123 3123 3123 3124 3124 3123 3123 3123 3123 3123 3122 3120 3120 3121 3120 3119 3120 3120 3120 3120 3120 3120 3120 3120 3120 3120 3119 3119 3118 3117 3116
3122 3122 3123 3123 3124 3124 3124 3124 3124 3124 3124 3124 3124 3124 3124 3124 3124 3124 3123 3123 3123 3122 3122 3122 3122 3121 3121 3121 3121 3121 3121 3121 3121 3121 3121 3122 3122 3123 3123 3123 3123 3123 3124 3124 3124 3123 3123 3122 3122 3123 3123 3123 3123 3123 3122 3122 3122 3121 3121 3121 3121 3121 3121 3121 3121 3121 3121 3119 3119 3119 3118 3117 3117 3118 3118 3118 3118 3118 3118 3118 3118 3118 3118 3118 3117 3116 3115 3114
3120 3121 3121 3122 3122 3122 3122 3122 3122 3123 3123 3123 3123 3123 3123 3123 3123 3123 3123 3123 3122 3122 3122 3122 3121 3121 3121 3121 3121 3120 3120 3120 3120 3120 3120 3121 3121 3122 3122 3122 3122 3122 3122 3123 3123 3123 3123 3122 3122 3122 3122 3122 3122 3121 3121 3121 3120 3119 3118 3118 3119 3118 3118 3118 3118 3118 3118 3117 3117 3117 3116 3115 3116 3116 3116 3116 3116 3116 3116 3116 3116 3116 3116 3116 3115 3115 3114 3112
3119 3119 3120 3120 3121 3121 3121 3121 3121 3121 3121 3121 3122 3122 3122 3122 3122 3122 3122 3122 3122 3121 3121 3121 3121 3120 3120 3120 3119 3119 3119 3119 3119 3119 3119 3119 3120 3120 3121 3121 3121 3121 3121 3121 3122 3122 3122 3122 3122 3122 3121 3120 3120 3120 3120 3119 3118 3116 3114 3115 3115 3115 3115 3115 3115 3115 3115 3115 3115 3115 3114 3114 3114 3114 3114 3113 3114 3114 3114 3114 3114 3114 3114 3114 3114 3113 3112 3110
3117 3118 3118 3119 3119 3119 3120 3120 3120 3120 3120 3120 3120 3120 3120 3121 3121 3121 3121 3121 3121 3121 3120 3120 3120 3119 3119 3118 3118 3117 3117 3117 3117 3117 3117 3117 3118 3118 3119 3119 3119 3119 3119 3120 3120 3121 3122 3122 3121 3121 3120 3119 3119 3119 3118 3118 3117 3113 3111 3111 3112 3112 3112 3113 3113 3113 3113 3113 3113 3112 3112 3112 3113 3112 3112 3112 3112 3112 3112 3112 3113 3113 3113 3112 3112 3111 3110 3109